User: anonymous   Login
Location: Unspecified
(0.0000°N, 0.0000°E)
Time: 23:56:24
(UTC+00:00)
Language:

RESURS 01 DEB - Orbit

View from above orbital plane
View from above orbital plane
View from above satellite
View from above satellite

Ground track
Ground track

The orbit data is extracted from the following two-line orbital elements,

1 46878U 94074BJ  22222.12477122  .00014552  00000-0  13918-2 0  9994
2 46878  97.9213 275.0548 0017615 112.6000 247.7084 14.93213023 95607
Epoch (UTC): 10 August 2022 02:59:40
Eccentricity: 0.0017615
inclination: 97.9213°
perigee height: 575 km
apogee height: 600 km
right ascension of ascending node: 275.0548°
argument of perigee: 112.6000°
revolutions per day: 14.93213023
mean anomaly at epoch: 247.7084°
orbit number at epoch: 9560

The dashed part of the orbit path shows where the satellite is in the earth's shadow,  

DLR